Kosmos-385

operational
NORAD ID: 4799 Int'l Des: 1970-108 Owner: OKB10 Country: SU
LEOCIRCULAR

关于 Kosmos-385

正在加载描述...

实时位置

正在加载3D地球...

即将过境

高度历史

Altitude vs Time

uPlot chart will show altitude changes over time

两行轨道根数

1 4799U 70108A 26061.18595428 .00000008 00000-0 30979-4 0 9992
2 4799 74.0206 207.9548 0003810 189.4237 343.4207 13.76973143773825
Epoch: Mar 2, 2026 • Age: 34 hours

当前状态

高度 980.8 km
速度 7.37 km/s
星下点 50.04°N, 56.59°E
类型 other

大型星座

Loading constellations...